IRIDIUM 33 DEB, 33966

Orbit data source: Space-Track

IRIDIUM 33 DEB, 33966 is space debris in LEO originally from a launch on Sun, 14 Sep 1997 UTC launched from the Tyuratam Missile And Space Complex (TTMTR). The debris from Iridium 33, an American commercial communications satellite, has been tracked extensively since its accidental collision with the defunct Russian satellite Cosmos 2251 in 2009. This event, occurring at high speed in low Earth orbit (LEO), generated thousands of pieces of space debris, significantly increasing the risk of further collisions. The Iridium 33 debris cloud has impacted space traffic management and orbital debris mitigation strategies, making it a subject of ongoing study in space situational awareness.

Loading next visibility...
Identifier
33966, 1997-051CB
Orbit
LEO
Country
Flag of USUS
Related business
Manufacturer
Unknown
Mission
Spacecraft
Bus & Motor
Unknown
Mass
Unknown
Launch date (UTC)
1997-09-14 (29 years ago)
Launch vehicle
Unknown
Launch site
Tyuratam Missile And Space Complex (TTMTR)
Object type
Payload
Rocket body
Debris
Shape & HBR
Unknown shape, 0.2 m
Radar Cross Section
Medium (>0.1 m² and <1 m²)

Expand to show TLE details & history
Last TLE update: 12 hours ago

TLE from 12 hours ago
0 IRIDIUM 33 DEB
1 33966U 97051CB  26167.95083803  .00001376  00000-0  34747-3 0  9992
2 33966  86.3917 326.0796 0005582 311.9983 172.2263 14.50375744911408
Epoch: 2026-06-16T22:49Z
TLE epoch observation values (Epoch: 2026-06-16T22:49:12.405Z)
Latitude
55.69912°
Longitude
-106.71311°
Altitude
737.709 km
Speed
7.489 km/s
True Right ascension
09h 23m 12s
True Declination
55° 32' 18"
Sunlit
Object was in daylight at epoch
Visualization orbit readout
Latitude
Unknown
Longitude
Unknown
Altitude
Unknown
Speed
Unknown
Apparent Right ascension
Unknown
Apparent Declination
Unknown
Sunlit
N/A
Visualization observer readout
Local Sidereal Time
21:19:33
Azimuth
Unknown
Elevation
Unknown
Doppler factor
Unknown
Orbital elements
Apogee altitude
725.326 km
Perigee altitude
717.4 km
Semi-major axis
7,099.5 km
Eccentricity
0.00056
Inclination
86.3917°
RAAN
326.0796°
Arg. of periapsis
311.9983°
True anomaly
172.23495°
Mean anomaly
172.2263°
Eccentric anomaly
172.23062°
Mean motion
3.62829 °/min
Orbital period
99.22 mins
BSTAR
0.00034747
Loading maneuver chart data...
Computing Atmospheric mass density...
Loading historical data...
Loading historical data...
Loading historical data...
Loading historical data...
Loading historical data...
Loading historical data...
Loading historical data...

Documentation

Showing up to 5 results
|